Location: Elaine Barite Prospect
(34.1431°N, 106.7922°W)
Time: 11:38:42
(UTC+00:00)

BREEZE-M DEB (TANK) - Pass Details

Date: 13 December 2025
Orbit: 357 x 16125 km, 49.4° (Epoch: 14 January)

Event Time Altitude Azimuth Distance (km) Brightness Sun altitude
Exits shadow 13:05:23 -1° 231° (SW) 2,784 5.6 -12.0°
Rises 13:05:30 0° 231° (SW) 2,732 5.6 -12.0°
Reaches altitude 10° 13:06:53 10° 231° (SW) 2,121 5.0 -11.7°
Maximum altitude 13:11:13 87° 321° (NW) 1,235 4.0 -10.9°
Drops below altitude 10° 13:29:01 10° 52° (NE) 7,875 8.6 -7.5°
Sets 13:41:14 0° 54° (NE) 11,691 9.5 -5.1°
